Lake Charles Regional, LA

8:46 AM CDT on April 20, 2018 (GMT -0500)
Lake Charles Regional

Weather History for KLCH - October, 2012

Change the Weather History Date:

Tuesday, October 2, 2012

  Actual Average Record
Temperature  
Mean Temperature 72 °F 74 °F  
Max Temperature 84 °F 84 °F 103 °F (1900)
Min Temperature 59 °F 64 °F 45 °F (1984)
Degree Days  
Heating Degree Days 0 0  
Month to date heating degree days 0 0  
Since 1 July heating degree days 0 1  
Cooling Degree Days 7 9  
Month to date cooling degree days 14 19  
Year to date cooling degree days 2955 2559  
Growing Degree Days 22 (Base 50)    
Moisture  
Dew Point 58 °F    
Average Humidity 67    
Maximum Humidity 97    
Minimum Humidity 37    
Precipitation  
Precipitation T in 0.14 in 1.62 in (2009)
Month to date precipitation 0.01 0.29  
Year to date precipitation 64.17 43.77  
Snow  
Snow 0.00 in 0.00 in 0.00 in ()
Month to date snowfall 0.0 0.0  
Since 1 July snowfall 0.0 0.0  
Since 1 September snowfall 0.0 0.0  
Snow Depth 0.00 in    
Sea Level Pressure  
Sea Level Pressure 29.90 in    
Wind  
Wind Speed 1 mph (NE)    
Max Wind Speed 9 mph    
Max Gust Speed 13 mph    
Visibility 9 miles    
Events      
T = Trace of Precipitation, MM = Missing Value Source: NWS Daily Summary

Daily Weather History Graph

Daily Weather History Graph

Search for Another Location

Airport or City:

Astronomy

Oct. 02, 2012 Rise Set
Actual Time 7:07 AM CDT 6:56 PM CDT
Civil Twilight 6:43 AM CDT 7:20 PM CDT
Nautical Twilight 6:15 AM CDT 7:48 PM CDT
Astronomical Twilight 5:47 AM CDT 8:15 PM CDT
Moon 8:24 PM CDT (10/2) 9:20 AM CDT (10/2)
Length of Visible Light 12h 37m
Length of Day
11h 49m
Waning Gibbous, 94% of the Moon is Illuminated
Oct 2
Waning Gibbous
Oct 8
Last Quarter
Oct 15
New
Oct 21
First Quarter
Oct 29
Full

Hourly Weather History & Observations

Time (CDT) Temp. Heat Index Dew Point Humidity Pressure Visibility Wind Dir Wind Speed Gust Speed Precip Events Conditions
12:53 AM 62.1 °F - 60.1 °F 93% 29.83 in 8.0 mi Calm Calm - N/A   Clear
1:53 AM 62.1 °F - 60.1 °F 93% 29.84 in 9.0 mi Calm Calm - N/A   Clear
2:53 AM 61.0 °F - 59.0 °F 93% 29.84 in 8.0 mi Calm Calm - N/A   Clear
3:53 AM 62.1 °F - 60.1 °F 93% 29.83 in 10.0 mi Calm Calm - N/A   Clear
4:53 AM 62.1 °F - 60.1 °F 93% 29.84 in 8.0 mi Calm Calm - N/A   Clear
5:53 AM 61.0 °F - 59.0 °F 93% 29.86 in 6.0 mi Calm Calm - N/A   Clear
6:53 AM 60.1 °F - 57.9 °F 93% 29.87 in 8.0 mi Calm Calm - N/A   Clear
7:53 AM 62.1 °F - 60.1 °F 93% 29.89 in 10.0 mi Calm Calm - N/A   Clear
8:53 AM 68.0 °F - 62.1 °F 81% 29.91 in 10.0 mi Calm Calm - N/A   Clear
9:53 AM 73.0 °F - 59.0 °F 61% 29.92 in 10.0 mi NE 3.5 mph - N/A   Clear
10:53 AM 77.0 °F - 54.0 °F 45% 29.93 in 10.0 mi ENE 3.5 mph - N/A   Clear
11:53 AM 79.0 °F - 52.0 °F 39% 29.93 in 10.0 mi Variable 3.5 mph - N/A   Clear
12:53 PM 81.0 °F 80.5 °F 54.0 °F 39% 29.92 in 10.0 mi ENE 4.6 mph - N/A   Clear
1:53 PM 81.0 °F 80.5 °F 54.0 °F 39% 29.90 in 10.0 mi Calm Calm - N/A   Clear
2:35 PM 82.4 °F 81.4 °F 53.6 °F 37% 29.87 in 10.0 mi North 5.8 mph - N/A   Clear
2:53 PM 82.9 °F 81.9 °F 54.0 °F 37% 29.89 in 10.0 mi North 6.9 mph - N/A   Clear
3:53 PM 82.9 °F 81.9 °F 54.0 °F 37% 29.88 in 10.0 mi Calm Calm - N/A   Clear
4:53 PM 81.0 °F 80.7 °F 55.0 °F 41% 29.89 in 10.0 mi Calm Calm - N/A   Scattered Clouds
5:53 PM 78.1 °F - 59.0 °F 52% 29.89 in 10.0 mi Calm Calm - N/A   Scattered Clouds
6:53 PM 72.0 °F - 63.0 °F 73% 29.91 in 10.0 mi South 5.8 mph - 0.00 in   Partly Cloudy
7:53 PM 70.0 °F - 62.1 °F 76% 29.93 in 10.0 mi Calm Calm - N/A   Clear
8:53 PM 66.2 °F - 62.6 °F 88% 29.92 in 10.0 mi Calm Calm - N/A   Clear
9:53 PM 64.9 °F - 62.1 °F 90% 29.96 in 10.0 mi NE 3.5 mph - N/A   Clear
10:53 PM 64.0 °F - 62.1 °F 93% 29.98 in 10.0 mi Calm Calm - N/A   Clear
11:53 PM 63.0 °F - 61.0 °F 93% 29.98 in 9.0 mi Calm Calm - N/A   Clear